TimeCDT,TemperatureF,Dew PointF,Humidity,Sea Level PressureIn,VisibilityMPH,Wind Direction,Wind SpeedMPH,Gust SpeedMPH,PrecipitationIn,Events,Conditions,WindDirDegrees,DateUTC
12:53 AM,78.1,57.9,50,29.91,10.0,South,16.1,-,N/A,,Clear,180,2013-06-13 05:53:00
1:53 AM,75.9,57.9,54,29.91,10.0,South,13.8,-,N/A,,Clear,180,2013-06-13 06:53:00
2:53 AM,73.9,59.0,59,29.92,10.0,SSW,11.5,-,N/A,,Clear,200,2013-06-13 07:53:00
3:53 AM,71.1,59.0,66,29.91,10.0,SSW,10.4,-,N/A,,Clear,200,2013-06-13 08:53:00
4:53 AM,70.0,59.0,68,29.91,10.0,South,11.5,-,N/A,,Clear,190,2013-06-13 09:53:00
5:53 AM,68.0,59.0,73,29.93,10.0,SSW,9.2,-,N/A,,Clear,200,2013-06-13 10:53:00
6:53 AM,64.0,57.9,80,29.95,10.0,SSW,6.9,-,N/A,,Clear,210,2013-06-13 11:53:00
7:53 AM,69.1,60.1,73,29.96,10.0,SSW,6.9,-,N/A,,Clear,200,2013-06-13 12:53:00
8:53 AM,75.9,61.0,60,29.96,10.0,SSW,12.7,-,N/A,,Clear,210,2013-06-13 13:53:00
9:53 AM,80.1,62.1,54,29.97,10.0,SSW,13.8,-,N/A,,Clear,210,2013-06-13 14:53:00
10:53 AM,82.9,61.0,47,29.97,10.0,SSW,12.7,-,N/A,,Clear,200,2013-06-13 15:53:00
11:53 AM,87.1,59.0,39,29.96,10.0,South,9.2,23.0,N/A,,Clear,170,2013-06-13 16:53:00
12:53 PM,88.0,57.9,36,29.95,10.0,South,16.1,26.5,N/A,,Clear,170,2013-06-13 17:53:00
1:53 PM,90.0,57.9,34,29.93,10.0,South,18.4,25.3,N/A,,Clear,170,2013-06-13 18:53:00
2:53 PM,91.9,55.9,30,29.90,10.0,South,13.8,21.9,N/A,,Clear,170,2013-06-13 19:53:00
3:53 PM,91.9,54.0,27,29.88,10.0,South,18.4,24.2,N/A,,Clear,170,2013-06-13 20:53:00
4:53 PM,93.0,55.0,28,29.85,10.0,SSE,15.0,20.7,N/A,,Clear,160,2013-06-13 21:53:00
5:53 PM,91.9,52.0,26,29.84,10.0,South,19.6,24.2,N/A,,Clear,170,2013-06-13 22:53:00
6:53 PM,91.0,55.0,29,29.84,10.0,SSE,18.4,24.2,N/A,,Clear,150,2013-06-13 23:53:00
7:53 PM,89.1,54.0,30,29.83,10.0,SE,18.4,28.8,N/A,,Clear,140,2013-06-14 00:53:00
8:53 PM,86.0,53.1,32,29.84,10.0,SSE,15.0,-,N/A,,Clear,150,2013-06-14 01:53:00
9:53 PM,82.9,55.9,39,29.87,10.0,SSE,12.7,-,N/A,,Clear,150,2013-06-14 02:53:00
10:53 PM,78.1,57.0,48,29.89,10.0,SSE,10.4,-,N/A,,Clear,150,2013-06-14 03:53:00
11:53 PM,78.1,57.9,50,29.89,10.0,SSE,12.7,-,N/A,,Clear,150,2013-06-14 04:53:00